| time (UTC) | temp F | wind direction | speed MPH | gust MPH | rain 1hr in | rain 24hr in | rain mn in | humidity % | barometer mb |
| 20260509095003 | 74 | 191 | 0.0 | 2.0 | 0.01 | 0.02 | 0.02 | 93 | 1011.4 |
| 20260509094503 | 74 | 191 | 1.0 | 2.0 | 0.02 | 0.02 | 0.02 | 93 | 1011.4 |
| 20260509094003 | 74 | 191 | 0.0 | 2.0 | 0.02 | 0.02 | 0.02 | 93 | 1011.4 |
| 20260509093503 | 74 | 191 | 1.0 | 2.0 | 0.02 | 0.02 | 0.02 | 93 | 1011.6 |
| 20260509093003 | 74 | 191 | 0.0 | 2.0 | 0.02 | 0.02 | 0.02 | 93 | 1011.6 |
| 20260509092503 | 74 | 191 | 0.0 | 1.0 | 0.02 | 0.02 | 0.02 | 92 | 1011.6 |
| 20260509092024 | 74 | 0 | 0.0 | 0.0 | 0.02 | 0.02 | 0.02 | 92 | 1011.4 |
| 20260509091503 | 74 | 191 | 0.0 | 2.0 | 0.01 | 0.01 | 0.01 | 92 | 1011.3 |
| 20260509091003 | 74 | 191 | 0.0 | 4.0 | 0.01 | 0.01 | 0.01 | 92 | 1011.2 |
| 20260509090524 | 74 | 191 | 0.0 | 4.0 | 0.01 | 0.01 | 0.01 | 92 | 1011.3 |
| 20260509090003 | 74 | 191 | 0.0 | 2.0 | 0.01 | 0.01 | 0.01 | 92 | 1011.3 |
| 20260509085503 | 74 | 191 | 0.0 | 2.0 | 0.01 | 0.01 | 0.01 | 92 | 1011.4 |
| 20260509085003 | 74 | 191 | 0.0 | 2.0 | 0.01 | 0.01 | 0.01 | 92 | 1011.4 |
| 20260509084504 | 74 | 191 | 0.0 | 2.0 | 0.00 | 0.00 | 0.00 | 92 | 1011.5 |
| 20260509084004 | 74 | 191 | 1.0 | 4.0 | 0.00 | 0.00 | 0.00 | 92 | 1011.5 |
| 20260509083504 | 74 | 191 | 1.0 | 5.0 | 0.00 | 0.00 | 0.00 | 92 | 1011.5 |
| 20260509083025 | 74 | 191 | 1.0 | 5.0 | 0.00 | 0.00 | 0.00 | 92 | 1011.6 |
| 20260509082504 | 74 | 192 | 1.0 | 6.0 | 0.00 | 0.00 | 0.00 | 92 | 1011.6 |
| 20260509082004 | 74 | 194 | 1.0 | 6.0 | 0.00 | 0.00 | 0.00 | 92 | 1011.5 |
| 20260509081525 | 74 | 195 | 1.0 | 4.0 | 0.00 | 0.00 | 0.00 | 92 | 1011.6 |
| 20260509081004 | 74 | 195 | 0.0 | 2.0 | 0.00 | 0.00 | 0.00 | 92 | 1011.8 |
| 20260509080504 | 74 | 195 | 0.0 | 2.0 | 0.00 | 0.00 | 0.00 | 92 | 1011.6 |
| 20260509080004 | 74 | 195 | 0.0 | 1.0 | 0.00 | 0.00 | 0.00 | 92 | 1011.6 |
| 20260509075504 | 74 | 195 | 0.0 | 4.0 | 0.00 | 0.00 | 0.00 | 92 | 1011.4 |
| 20260509075004 | 74 | 195 | 1.0 | 4.0 | 0.00 | 0.00 | 0.00 | 92 | 1011.4 |
| 20260509074504 | 74 | 195 | 1.0 | 4.0 | 0.00 | 0.00 | 0.00 | 92 | 1011.4 |
| 20260509074004 | 74 | 195 | 1.0 | 4.0 | 0.00 | 0.00 | 0.00 | 92 | 1011.5 |
| 20260509073504 | 74 | 195 | 1.0 | 2.0 | 0.00 | 0.00 | 0.00 | 91 | 1011.5 |
| 20260509073004 | 74 | 195 | 0.0 | 2.0 | 0.00 | 0.00 | 0.00 | 91 | 1011.6 |
| 20260509072504 | 74 | 195 | 0.0 | 2.0 | 0.00 | 0.00 | 0.00 | 91 | 1011.6 |
| 20260509072004 | 74 | 195 | 0.0 | 4.0 | 0.00 | 0.00 | 0.00 | 91 | 1011.7 |
| 20260509071525 | 74 | 195 | 1.0 | 4.0 | 0.00 | 0.00 | 0.00 | 91 | 1011.7 |
| 20260509071004 | 74 | 195 | 2.0 | 5.0 | 0.00 | 0.00 | 0.00 | 91 | 1011.7 |
| 20260509070504 | 74 | 195 | 2.0 | 5.0 | 0.00 | 0.00 | 0.00 | 91 | 1011.8 |
| 20260509070004 | 74 | 195 | 2.0 | 5.0 | 0.00 | 0.00 | 0.00 | 91 | 1011.8 |
| 20260509065504 | 74 | 176 | 4.0 | 7.0 | 0.00 | 0.00 | 0.00 | 91 | 1011.9 |
| 20260509065003 | 74 | 152 | 4.0 | 7.0 | 0.00 | 0.00 | 0.00 | 91 | 1011.7 |
| 20260509064504 | 74 | 143 | 2.0 | 7.0 | 0.00 | 0.00 | 0.00 | 91 | 1011.5 |
| 20260509064003 | 74 | 143 | 2.0 | 10.0 | 0.00 | 0.00 | 0.00 | 91 | 1011.6 |
| 20260509063504 | 74 | 153 | 2.0 | 10.0 | 0.00 | 0.00 | 0.00 | 91 | 1011.3 |
| 20260509063025 | 74 | 175 | 2.0 | 5.0 | 0.00 | 0.00 | 0.00 | 91 | 1011.3 |
| 20260509062504 | 74 | 170 | 4.0 | 10.0 | 0.00 | 0.00 | 0.00 | 91 | 1011.3 |
| 20260509062004 | 74 | 173 | 5.0 | 10.0 | 0.00 | 0.00 | 0.00 | 91 | 1011.5 |
| 20260509061504 | 74 | 179 | 5.0 | 11.0 | 0.00 | 0.00 | 0.00 | 91 | 1011.5 |
| 20260509061004 | 74 | 174 | 6.0 | 11.0 | 0.00 | 0.00 | 0.00 | 91 | 1011.6 |
| 20260509060504 | 74 | 168 | 6.0 | 13.0 | 0.00 | 0.00 | 0.00 | 90 | 1011.6 |
| 20260509060004 | 74 | 167 | 7.0 | 14.0 | 0.00 | 0.00 | 0.00 | 90 | 1011.4 |
| 20260509055525 | 74 | 159 | 7.0 | 17.0 | 0.00 | 0.00 | 0.00 | 90 | 1011.4 |
| 20260509055004 | 74 | 149 | 6.0 | 17.0 | 0.00 | 0.00 | 0.00 | 90 | 1011.2 |
| 20260509054504 | 74 | 152 | 6.0 | 14.0 | 0.00 | 0.00 | 0.00 | 90 | 1011.4 |
| 20260509054004 | 74 | 155 | 6.0 | 13.0 | 0.00 | 0.00 | 0.00 | 90 | 1011.5 |
| 20260509053504 | 74 | 164 | 5.0 | 11.0 | 0.00 | 0.00 | 0.00 | 90 | 1011.5 |
| 20260509053004 | 74 | 168 | 5.0 | 13.0 | 0.00 | 0.00 | 0.00 | 90 | 1011.5 |
| 20260509052504 | 74 | 169 | 5.0 | 13.0 | 0.00 | 0.00 | 0.00 | 90 | 1011.5 |
| 20260509052025 | 74 | 154 | 4.0 | 10.0 | 0.00 | 0.00 | 0.00 | 90 | 1011.5 |
| 20260509051504 | 74 | 128 | 4.0 | 7.0 | 0.00 | 0.00 | 0.00 | 90 | 1011.3 |
| 20260509051004 | 74 | 126 | 2.0 | 7.0 | 0.00 | 0.00 | 0.00 | 89 | 1011.2 |
| 20260509050524 | 74 | 125 | 2.0 | 6.0 | 0.00 | 0.00 | 0.00 | 89 | 1011.1 |
| 20260509050004 | 74 | 125 | 2.0 | 6.0 | 0.00 | 0.00 | 0.00 | 89 | 1011.2 |
| 20260509045503 | 74 | 125 | 4.0 | 7.0 | 0.00 | 0.00 | 0.00 | 89 | 1011.1 |
| 20260509045003 | 74 | 125 | 4.0 | 7.0 | 0.00 | 0.00 | 0.00 | 88 | 1011.0 |
| 20260509044504 | 74 | 126 | 4.0 | 7.0 | 0.00 | 0.00 | 0.00 | 88 | 1011.1 |
| 20260509044003 | 74 | 126 | 4.0 | 8.0 | 0.00 | 0.00 | 0.00 | 88 | 1011.0 |
| 20260509043504 | 74 | 126 | 4.0 | 8.0 | 0.00 | 0.00 | 0.00 | 88 | 1011.0 |
| 20260509043025 | 74 | 126 | 4.0 | 8.0 | 0.00 | 0.00 | 0.00 | 88 | 1011.1 |
| 20260509042503 | 74 | 126 | 4.0 | 6.0 | 0.00 | 0.00 | 0.00 | 88 | 1011.3 |
| 20260509042025 | 74 | 126 | 4.0 | 6.0 | 0.00 | 0.00 | 0.00 | 88 | 1011.3 |
| 20260509041503 | 74 | 126 | 4.0 | 6.0 | 0.00 | 0.00 | 0.00 | 88 | 1011.3 |
| 20260509041003 | 74 | 126 | 2.0 | 5.0 | 0.00 | 0.00 | 0.00 | 87 | 1011.5 |
| 20260509040504 | 74 | 126 | 2.0 | 5.0 | 0.00 | 0.00 | 0.00 | 87 | 1011.5 |
| 20260509040004 | 74 | 126 | 2.0 | 4.0 | 0.00 | 0.00 | 0.00 | 87 | 1011.6 |
| 20260509035504 | 74 | 126 | 2.0 | 4.0 | 0.00 | 0.00 | 0.00 | 87 | 1011.6 |
| 20260509035004 | 74 | 126 | 1.0 | 4.0 | 0.00 | 0.00 | 0.00 | 87 | 1011.7 |
| 20260509034503 | 74 | 126 | 1.0 | 4.0 | 0.00 | 0.00 | 0.00 | 87 | 1011.6 |
| 20260509034004 | 74 | 126 | 1.0 | 4.0 | 0.00 | 0.00 | 0.00 | 87 | 1011.6 |
| 20260509033524 | 74 | 126 | 1.0 | 4.0 | 0.00 | 0.00 | 0.00 | 87 | 1011.6 |
| 20260509033025 | 74 | 126 | 2.0 | 5.0 | 0.00 | 0.00 | 0.00 | 87 | 1011.4 |
| 20260509032504 | 74 | 126 | 2.0 | 6.0 | 0.00 | 0.00 | 0.00 | 87 | 1011.4 |
| 20260509032004 | 74 | 126 | 2.0 | 6.0 | 0.00 | 0.00 | 0.00 | 87 | 1011.3 |
| 20260509031504 | 74 | 126 | 4.0 | 8.0 | 0.00 | 0.00 | 0.00 | 86 | 1011.2 |
| 20260509031004 | 74 | 127 | 4.0 | 8.0 | 0.00 | 0.00 | 0.00 | 85 | 1011.0 |
| 20260509030503 | 74 | 129 | 2.0 | 6.0 | 0.00 | 0.00 | 0.00 | 84 | 1011.0 |
| 20260509030003 | 75 | 129 | 1.0 | 4.0 | 0.00 | 0.00 | 0.00 | 83 | 1011.1 |
| 20260509025504 | 75 | 129 | 2.0 | 4.0 | 0.00 | 0.00 | 0.00 | 83 | 1011.0 |
| 20260509025003 | 75 | 129 | 1.0 | 4.0 | 0.00 | 0.00 | 0.00 | 83 | 1011.0 |
| 20260509024503 | 75 | 129 | 0.0 | 2.0 | 0.00 | 0.00 | 0.00 | 82 | 1011.0 |
| 20260509024004 | 75 | 0 | 0.0 | 0.0 | 0.00 | 0.00 | 0.00 | 82 | 1011.1 |
| 20260509023503 | 75 | 0 | 0.0 | 0.0 | 0.00 | 0.00 | 0.00 | 82 | 1011.0 |
| 20260509023024 | 76 | 0 | 0.0 | 0.0 | 0.00 | 0.00 | 0.00 | 82 | 1011.0 |
| 20260509022503 | 76 | 129 | 0.0 | 2.0 | 0.00 | 0.00 | 0.00 | 82 | 1010.9 |
| 20260509022025 | 76 | 129 | 0.0 | 2.0 | 0.00 | 0.00 | 0.00 | 82 | 1010.8 |
| 20260509021504 | 76 | 129 | 1.0 | 4.0 | 0.00 | 0.00 | 0.00 | 82 | 1010.6 |
| 20260509021004 | 76 | 129 | 1.0 | 5.0 | 0.00 | 0.00 | 0.00 | 82 | 1010.5 |
| 20260509020503 | 76 | 129 | 1.0 | 5.0 | 0.00 | 0.00 | 0.00 | 82 | 1010.3 |
| 20260509020025 | 76 | 129 | 2.0 | 6.0 | 0.00 | 0.00 | 0.00 | 82 | 1010.2 |
| 20260509015503 | 76 | 129 | 2.0 | 6.0 | 0.00 | 0.00 | 0.00 | 82 | 1010.2 |
| 20260509015003 | 77 | 129 | 4.0 | 6.0 | 0.00 | 0.00 | 0.00 | 82 | 1010.1 |
| 20260509014504 | 77 | 129 | 4.0 | 7.0 | 0.00 | 0.00 | 0.00 | 82 | 1010.1 |
| 20260509014003 | 77 | 129 | 4.0 | 7.0 | 0.00 | 0.00 | 0.00 | 81 | 1010.1 |
| 20260509013503 | 77 | 130 | 2.0 | 6.0 | 0.00 | 0.00 | 0.00 | 81 | 1010.2 |
| 20260509013003 | 77 | 130 | 4.0 | 6.0 | 0.00 | 0.00 | 0.00 | 81 | 1010.2 |
| 20260509012503 | 77 | 129 | 4.0 | 8.0 | 0.00 | 0.00 | 0.00 | 81 | 1010.2 |
| 20260509012004 | 77 | 128 | 4.0 | 8.0 | 0.00 | 0.00 | 0.00 | 81 | 1010.2 |
| 20260509011503 | 78 | 128 | 4.0 | 8.0 | 0.00 | 0.00 | 0.00 | 80 | 1010.3 |
| 20260509011003 | 78 | 129 | 2.0 | 8.0 | 0.00 | 0.00 | 0.00 | 80 | 1010.2 |
| 20260509010503 | 78 | 129 | 2.0 | 6.0 | 0.00 | 0.00 | 0.00 | 80 | 1010.1 |
| 20260509010004 | 78 | 129 | 4.0 | 7.0 | 0.00 | 0.00 | 0.00 | 79 | 1010.1 |
| 20260509005503 | 78 | 129 | 4.0 | 7.0 | 0.00 | 0.00 | 0.00 | 79 | 1010.2 |
| 20260509005003 | 78 | 129 | 4.0 | 7.0 | 0.00 | 0.00 | 0.00 | 79 | 1010.1 |
| 20260509004503 | 78 | 128 | 4.0 | 7.0 | 0.00 | 0.00 | 0.00 | 79 | 1010.1 |
| 20260509004003 | 79 | 128 | 4.0 | 7.0 | 0.00 | 0.00 | 0.00 | 78 | 1010.1 |
| 20260509003503 | 79 | 129 | 4.0 | 7.0 | 0.00 | 0.00 | 0.00 | 78 | 1010.0 |
| 20260509003003 | 79 | 129 | 2.0 | 7.0 | 0.00 | 0.00 | 0.00 | 78 | 1010.1 |
| 20260509002503 | 79 | 128 | 2.0 | 7.0 | 0.00 | 0.00 | 0.00 | 77 | 1010.1 |
| 20260509002003 | 79 | 128 | 2.0 | 6.0 | 0.00 | 0.00 | 0.00 | 77 | 1010.1 |
| 20260509001503 | 79 | 123 | 4.0 | 8.0 | 0.00 | 0.00 | 0.00 | 77 | 1010.0 |
| 20260509001003 | 80 | 122 | 4.0 | 8.0 | 0.00 | 0.00 | 0.00 | 76 | 1010.1 |
| 20260509000503 | 80 | 122 | 5.0 | 10.0 | 0.00 | 0.00 | 0.00 | 76 | 1010.1 |
| 20260509000003 | 80 | 121 | 5.0 | 10.0 | 0.00 | 0.00 | 0.00 | 76 | 1010.1 |
| 20260508235503 | 80 | 120 | 5.0 | 11.0 | 0.00 | 0.00 | 0.00 | 75 | 1010.0 |
| 20260508235003 | 80 | 124 | 5.0 | 12.0 | 0.00 | 0.00 | 0.00 | 75 | 1010.0 |
| 20260508234503 | 80 | 139 | 5.0 | 12.0 | 0.00 | 0.00 | 0.00 | 75 | 1009.9 |
| 20260508234024 | 80 | 142 | 5.0 | 11.0 | 0.00 | 0.00 | 0.00 | 75 | 1010.0 |
| 20260508233503 | 80 | 133 | 5.0 | 11.0 | 0.00 | 0.00 | 0.00 | 75 | 1010.0 |
| 20260508233024 | 80 | 144 | 4.0 | 8.0 | 0.00 | 0.00 | 0.00 | 75 | 1009.9 |
| 20260508232504 | 80 | 154 | 5.0 | 10.0 | 0.00 | 0.00 | 0.00 | 75 | 1010.0 |
| 20260508232003 | 80 | 155 | 5.0 | 10.0 | 0.00 | 0.00 | 0.00 | 75 | 1010.0 |
| 20260508231503 | 80 | 160 | 5.0 | 10.0 | 0.00 | 0.00 | 0.00 | 74 | 1010.1 |
| 20260508231003 | 81 | 157 | 5.0 | 8.0 | 0.00 | 0.00 | 0.00 | 74 | 1010.0 |
| 20260508230524 | 81 | 151 | 5.0 | 8.0 | 0.00 | 0.00 | 0.00 | 74 | 1010.2 |
| 20260508230004 | 81 | 143 | 5.0 | 10.0 | 0.00 | 0.00 | 0.00 | 74 | 1010.2 |
| 20260508225503 | 81 | 141 | 5.0 | 10.0 | 0.00 | 0.00 | 0.00 | 73 | 1010.1 |
| 20260508225003 | 81 | 136 | 5.0 | 10.0 | 0.00 | 0.00 | 0.00 | 73 | 1010.2 |
| 20260508224503 | 81 | 126 | 5.0 | 10.0 | 0.00 | 0.00 | 0.00 | 74 | 1010.1 |
| 20260508224003 | 81 | 126 | 5.0 | 11.0 | 0.00 | 0.00 | 0.00 | 73 | 1010.1 |
| 20260508223524 | 81 | 138 | 5.0 | 11.0 | 0.00 | 0.00 | 0.00 | 73 | 1010.1 |
| 20260508223024 | 82 | 151 | 5.0 | 10.0 | 0.00 | 0.00 | 0.00 | 72 | 1010.1 |
| 20260508222503 | 82 | 151 | 5.0 | 11.0 | 0.00 | 0.00 | 0.00 | 71 | 1010.1 |
| 20260508222003 | 82 | 145 | 5.0 | 11.0 | 0.00 | 0.00 | 0.00 | 70 | 1010.1 |
| 20260508221524 | 82 | 128 | 5.0 | 13.0 | 0.00 | 0.00 | 0.00 | 70 | 1010.1 |
| 20260508221024 | 83 | 124 | 6.0 | 13.0 | 0.00 | 0.00 | 0.00 | 70 | 1010.3 |
| 20260508220503 | 83 | 135 | 5.0 | 13.0 | 0.00 | 0.00 | 0.00 | 70 | 1010.3 |
| 20260508220003 | 83 | 140 | 5.0 | 10.0 | 0.00 | 0.00 | 0.00 | 69 | 1010.4 |
| 20260508215524 | 83 | 131 | 4.0 | 8.0 | 0.00 | 0.00 | 0.00 | 70 | 1010.3 |
| 20260508215003 | 83 | 134 | 5.0 | 10.0 | 0.00 | 0.00 | 0.00 | 71 | 1010.5 |
| 20260508214503 | 82 | 136 | 5.0 | 10.0 | 0.00 | 0.00 | 0.00 | 71 | 1010.4 |
| 20260508214003 | 82 | 121 | 4.0 | 10.0 | 0.00 | 0.00 | 0.00 | 70 | 1010.4 |
| 20260508213503 | 82 | 121 | 5.0 | 8.0 | 0.00 | 0.00 | 0.00 | 70 | 1010.5 |
| 20260508213003 | 82 | 131 | 4.0 | 8.0 | 0.00 | 0.00 | 0.00 | 70 | 1010.5 |
| 20260508212503 | 82 | 137 | 4.0 | 11.0 | 0.00 | 0.00 | 0.00 | 70 | 1010.6 |
| 20260508212024 | 82 | 135 | 4.0 | 11.0 | 0.00 | 0.00 | 0.00 | 70 | 1010.6 |
| 20260508211503 | 81 | 128 | 5.0 | 10.0 | 0.00 | 0.00 | 0.00 | 70 | 1010.8 |
| 20260508211003 | 81 | 149 | 5.0 | 11.0 | 0.00 | 0.00 | 0.00 | 72 | 1010.9 |
| 20260508210524 | 81 | 158 | 5.0 | 11.0 | 0.00 | 0.00 | 0.00 | 71 | 1011.0 |
| 20260508210003 | 81 | 146 | 4.0 | 11.0 | 0.00 | 0.00 | 0.00 | 72 | 1011.1 |
| 20260508205503 | 81 | 127 | 5.0 | 11.0 | 0.00 | 0.00 | 0.00 | 72 | 1011.1 |
| 20260508205024 | 81 | 137 | 4.0 | 11.0 | 0.00 | 0.00 | 0.00 | 72 | 1011.2 |
| 20260508204503 | 81 | 133 | 5.0 | 13.0 | 0.00 | 0.00 | 0.00 | 71 | 1011.2 |
| 20260508204004 | 81 | 109 | 5.0 | 13.0 | 0.00 | 0.00 | 0.00 | 72 | 1011.3 |
| 20260508203504 | 81 | 105 | 5.0 | 12.0 | 0.00 | 0.00 | 0.00 | 70 | 1011.4 |
| 20260508203025 | 82 | 104 | 5.0 | 12.0 | 0.00 | 0.00 | 0.00 | 70 | 1011.4 |
| 20260508202504 | 82 | 114 | 5.0 | 10.0 | 0.00 | 0.00 | 0.00 | 71 | 1011.5 |
| 20260508202004 | 82 | 126 | 5.0 | 10.0 | 0.00 | 0.00 | 0.00 | 70 | 1011.4 |
| 20260508201504 | 82 | 130 | 5.0 | 10.0 | 0.00 | 0.00 | 0.00 | 70 | 1011.4 |
| 20260508201025 | 82 | 133 | 5.0 | 10.0 | 0.00 | 0.00 | 0.00 | 70 | 1011.5 |
| 20260508200504 | 82 | 136 | 5.0 | 11.0 | 0.00 | 0.00 | 0.00 | 70 | 1011.5 |
| 20260508200004 | 81 | 121 | 6.0 | 12.0 | 0.00 | 0.00 | 0.00 | 71 | 1011.6 |
| 20260508195504 | 81 | 112 | 5.0 | 12.0 | 0.00 | 0.00 | 0.00 | 71 | 1011.6 |
| 20260508195004 | 81 | 116 | 5.0 | 11.0 | 0.00 | 0.00 | 0.00 | 71 | 1011.6 |
| 20260508194504 | 81 | 130 | 5.0 | 10.0 | 0.00 | 0.00 | 0.00 | 70 | 1011.8 |
| 20260508194003 | 81 | 134 | 5.0 | 10.0 | 0.00 | 0.00 | 0.00 | 70 | 1011.9 |
| 20260508193504 | 81 | 134 | 4.0 | 8.0 | 0.00 | 0.00 | 0.00 | 70 | 1012.0 |
| 20260508193004 | 81 | 127 | 5.0 | 10.0 | 0.00 | 0.00 | 0.00 | 69 | 1012.0 |
| 20260508192525 | 81 | 118 | 5.0 | 10.0 | 0.00 | 0.00 | 0.00 | 70 | 1012.1 |
| 20260508192004 | 81 | 108 | 4.0 | 10.0 | 0.00 | 0.00 | 0.00 | 70 | 1012.1 |
| 20260508191504 | 81 | 91 | 4.0 | 10.0 | 0.00 | 0.00 | 0.00 | 70 | 1012.2 |
| 20260508191004 | 80 | 95 | 4.0 | 11.0 | 0.00 | 0.00 | 0.00 | 71 | 1012.2 |
| 20260508190504 | 80 | 109 | 4.0 | 11.0 | 0.00 | 0.00 | 0.00 | 70 | 1012.3 |
| 20260508190004 | 80 | 113 | 2.0 | 6.0 | 0.00 | 0.00 | 0.00 | 70 | 1012.4 |
| 20260508185504 | 79 | 113 | 4.0 | 8.0 | 0.00 | 0.00 | 0.00 | 69 | 1012.5 |
| 20260508185004 | 79 | 114 | 4.0 | 10.0 | 0.00 | 0.00 | 0.00 | 69 | 1012.8 |
| 20260508184504 | 79 | 114 | 4.0 | 10.0 | 0.00 | 0.00 | 0.00 | 69 | 1012.7 |
| 20260508184004 | 79 | 113 | 2.0 | 10.0 | 0.00 | 0.00 | 0.00 | 70 | 1012.8 |
| 20260508183504 | 79 | 113 | 2.0 | 5.0 | 0.00 | 0.00 | 0.00 | 69 | 1012.7 |
| 20260508183004 | 79 | 111 | 4.0 | 8.0 | 0.00 | 0.00 | 0.00 | 70 | 1012.9 |
| 20260508182525 | 79 | 101 | 4.0 | 8.0 | 0.00 | 0.00 | 0.00 | 70 | 1012.8 |
| 20260508182004 | 78 | 101 | 4.0 | 8.0 | 0.00 | 0.00 | 0.00 | 70 | 1013.0 |
| 20260508181504 | 79 | 120 | 5.0 | 10.0 | 0.00 | 0.00 | 0.00 | 71 | 1013.0 |
| 20260508181025 | 78 | 126 | 4.0 | 10.0 | 0.00 | 0.00 | 0.00 | 71 | 1013.1 |
| 20260508180503 | 78 | 126 | 4.0 | 8.0 | 0.00 | 0.00 | 0.00 | 71 | 1013.2 |
| 20260508180004 | 78 | 130 | 5.0 | 11.0 | 0.00 | 0.00 | 0.00 | 72 | 1013.4 |
| 20260508175525 | 78 | 124 | 5.0 | 11.0 | 0.00 | 0.00 | 0.00 | 71 | 1013.4 |
| 20260508175004 | 78 | 112 | 5.0 | 11.0 | 0.00 | 0.00 | 0.00 | 71 | 1013.4 |
| 20260508174524 | 78 | 107 | 6.0 | 11.0 | 0.00 | 0.00 | 0.00 | 71 | 1013.4 |
| 20260508174025 | 78 | 117 | 6.0 | 11.0 | 0.00 | 0.00 | 0.00 | 70 | 1013.5 |
| 20260508173504 | 78 | 118 | 6.0 | 11.0 | 0.00 | 0.00 | 0.00 | 70 | 1013.5 |
| 20260508173004 | 78 | 114 | 5.0 | 11.0 | 0.00 | 0.00 | 0.00 | 70 | 1013.4 |
| 20260508172503 | 78 | 129 | 5.0 | 10.0 | 0.00 | 0.00 | 0.00 | 70 | 1013.5 |
| 20260508172004 | 78 | 133 | 4.0 | 10.0 | 0.00 | 0.00 | 0.00 | 71 | 1013.7 |
| 20260508171504 | 78 | 121 | 2.0 | 8.0 | 0.00 | 0.00 | 0.00 | 71 | 1013.7 |
| 20260508171004 | 78 | 122 | 2.0 | 5.0 | 0.00 | 0.00 | 0.00 | 71 | 1013.8 |
| 20260508170503 | 78 | 108 | 4.0 | 6.0 | 0.00 | 0.00 | 0.00 | 71 | 1013.8 |
| 20260508170004 | 78 | 87 | 4.0 | 8.0 | 0.00 | 0.00 | 0.00 | 71 | 1013.7 |
| 20260508165524 | 77 | 78 | 4.0 | 8.0 | 0.00 | 0.00 | 0.00 | 73 | 1013.6 |
| 20260508165004 | 77 | 32 | 4.0 | 6.0 | 0.00 | 0.00 | 0.00 | 72 | 1013.7 |
| 20260508164525 | 76 | 1 | 4.0 | 6.0 | 0.00 | 0.00 | 0.00 | 72 | 1013.7 |
| 20260508164004 | 76 | 4 | 4.0 | 7.0 | 0.00 | 0.00 | 0.00 | 73 | 1013.9 |
| 20260508163504 | 75 | 32 | 2.0 | 7.0 | 0.00 | 0.00 | 0.00 | 75 | 1013.9 |
| 20260508163004 | 74 | 82 | 2.0 | 6.0 | 0.00 | 0.00 | 0.00 | 75 | 1013.9 |
| 20260508162525 | 74 | 83 | 2.0 | 6.0 | 0.00 | 0.00 | 0.00 | 75 | 1014.0 |
| 20260508162004 | 73 | 85 | 2.0 | 8.0 | 0.00 | 0.00 | 0.00 | 77 | 1014.1 |
| 20260508161504 | 73 | 67 | 2.0 | 8.0 | 0.00 | 0.00 | 0.00 | 76 | 1014.2 |
| 20260508161003 | 72 | 41 | 2.0 | 6.0 | 0.00 | 0.00 | 0.00 | 76 | 1014.3 |
| 20260508160504 | 72 | 38 | 1.0 | 2.0 | 0.00 | 0.00 | 0.00 | 76 | 1014.4 |
| 20260508160004 | 72 | 38 | 1.0 | 2.0 | 0.00 | 0.00 | 0.00 | 76 | 1014.7 |
| 20260508155524 | 72 | 38 | 1.0 | 4.0 | 0.00 | 0.00 | 0.00 | 76 | 1014.8 |
| 20260508155025 | 71 | 38 | 2.0 | 4.0 | 0.00 | 0.00 | 0.00 | 76 | 1014.7 |
| 20260508154504 | 71 | 38 | 2.0 | 5.0 | 0.00 | 0.00 | 0.00 | 76 | 1014.7 |
| 20260508154003 | 70 | 38 | 2.0 | 6.0 | 0.00 | 0.00 | 0.00 | 77 | 1014.8 |
| 20260508153524 | 70 | 38 | 2.0 | 6.0 | 0.00 | 0.00 | 0.00 | 77 | 1014.9 |
| 20260508153004 | 69 | 38 | 2.0 | 5.0 | 0.00 | 0.00 | 0.00 | 77 | 1015.0 |
| 20260508152503 | 68 | 38 | 2.0 | 4.0 | 0.00 | 0.00 | 0.00 | 78 | 1015.0 |
| 20260508152025 | 68 | 38 | 2.0 | 5.0 | 0.00 | 0.00 | 0.00 | 79 | 1015.1 |
| 20260508151503 | 68 | 38 | 1.0 | 5.0 | 0.00 | 0.00 | 0.00 | 79 | 1015.1 |
| 20260508151004 | 67 | 38 | 1.0 | 5.0 | 0.00 | 0.00 | 0.00 | 78 | 1015.2 |
| 20260508150503 | 67 | 38 | 1.0 | 5.0 | 0.00 | 0.00 | 0.00 | 79 | 1015.4 |
| 20260508150004 | 67 | 38 | 2.0 | 5.0 | 0.00 | 0.00 | 0.00 | 78 | 1015.4 |
| 20260508145503 | 66 | 37 | 2.0 | 6.0 | 0.00 | 0.00 | 0.00 | 79 | 1015.4 |
| 20260508145024 | 66 | 35 | 2.0 | 6.0 | 0.00 | 0.00 | 0.00 | 80 | 1015.4 |
| 20260508144504 | 66 | 34 | 2.0 | 5.0 | 0.00 | 0.00 | 0.00 | 79 | 1015.4 |
| 20260508144003 | 66 | 34 | 2.0 | 5.0 | 0.00 | 0.00 | 0.00 | 79 | 1015.3 |
| 20260508143504 | 66 | 34 | 1.0 | 4.0 | 0.00 | 0.00 | 0.00 | 79 | 1015.4 |
| 20260508143003 | 65 | 34 | 1.0 | 4.0 | 0.00 | 0.00 | 0.00 | 80 | 1015.5 |
| 20260508142504 | 65 | 34 | 2.0 | 5.0 | 0.00 | 0.00 | 0.00 | 80 | 1015.4 |
| 20260508142003 | 65 | 34 | 1.0 | 5.0 | 0.00 | 0.00 | 0.00 | 80 | 1015.3 |
| 20260508141504 | 65 | 34 | 1.0 | 5.0 | 0.00 | 0.00 | 0.00 | 81 | 1015.4 |
| 20260508141003 | 65 | 34 | 1.0 | 5.0 | 0.00 | 0.00 | 0.00 | 80 | 1015.4 |
| 20260508140503 | 64 | 34 | 2.0 | 7.0 | 0.00 | 0.00 | 0.00 | 81 | 1015.5 |
| 20260508140004 | 64 | 35 | 4.0 | 7.0 | 0.00 | 0.00 | 0.00 | 81 | 1015.4 |
| 20260508135503 | 64 | 35 | 2.0 | 8.0 | 0.00 | 0.00 | 0.00 | 81 | 1015.3 |
| 20260508135024 | 64 | 32 | 2.0 | 8.0 | 0.00 | 0.00 | 0.00 | 81 | 1015.4 |
| 20260508134503 | 64 | 30 | 4.0 | 8.0 | 0.00 | 0.00 | 0.00 | 81 | 1015.4 |
| 20260508134003 | 64 | 25 | 4.0 | 6.0 | 0.00 | 0.00 | 0.00 | 81 | 1015.5 |
| 20260508133504 | 64 | 352 | 4.0 | 6.0 | 0.00 | 0.00 | 0.00 | 81 | 1015.5 |
| 20260508133024 | 64 | 324 | 4.0 | 7.0 | 0.00 | 0.00 | 0.00 | 81 | 1015.5 |
| 20260508132524 | 64 | 319 | 2.0 | 7.0 | 0.00 | 0.00 | 0.00 | 81 | 1015.5 |
| 20260508132004 | 64 | 318 | 2.0 | 7.0 | 0.00 | 0.00 | 0.00 | 81 | 1015.6 |
| 20260508131524 | 63 | 318 | 1.0 | 7.0 | 0.00 | 0.00 | 0.00 | 82 | 1015.7 |
| 20260508131003 | 63 | 317 | 1.0 | 6.0 | 0.00 | 0.00 | 0.00 | 82 | 1015.6 |
| 20260508130503 | 63 | 317 | 2.0 | 6.0 | 0.00 | 0.00 | 0.00 | 82 | 1015.5 |
| 20260508130003 | 63 | 317 | 2.0 | 6.0 | 0.00 | 0.00 | 0.00 | 82 | 1015.3 |
| 20260508125525 | 63 | 319 | 2.0 | 7.0 | 0.00 | 0.00 | 0.00 | 81 | 1015.3 |
| 20260508125003 | 63 | 332 | 4.0 | 7.0 | 0.00 | 0.00 | 0.00 | 81 | 1015.5 |
| 20260508124504 | 63 | 338 | 5.0 | 7.0 | 0.00 | 0.00 | 0.00 | 81 | 1015.5 |
| 20260508124003 | 63 | 343 | 4.0 | 7.0 | 0.00 | 0.00 | 0.00 | 81 | 1015.5 |
| 20260508123503 | 63 | 349 | 4.0 | 7.0 | 0.00 | 0.00 | 0.00 | 81 | 1015.7 |
| 20260508123003 | 63 | 349 | 4.0 | 7.0 | 0.00 | 0.00 | 0.00 | 81 | 1015.6 |
| 20260508122503 | 63 | 348 | 4.0 | 7.0 | 0.00 | 0.00 | 0.00 | 81 | 1015.4 |
| 20260508122003 | 63 | 346 | 4.0 | 7.0 | 0.00 | 0.00 | 0.00 | 81 | 1015.4 |
| 20260508121503 | 63 | 344 | 4.0 | 7.0 | 0.00 | 0.00 | 0.00 | 81 | 1015.3 |
| 20260508121024 | 63 | 344 | 2.0 | 8.0 | 0.00 | 0.00 | 0.00 | 81 | 1015.6 |
| 20260508120503 | 63 | 342 | 4.0 | 8.0 | 0.00 | 0.00 | 0.00 | 82 | 1015.7 |
| 20260508120003 | 63 | 339 | 2.0 | 6.0 | 0.00 | 0.00 | 0.00 | 82 | 1015.5 |
| 20260508115503 | 63 | 338 | 2.0 | 5.0 | 0.00 | 0.00 | 0.00 | 82 | 1015.8 |
| 20260508115003 | 63 | 338 | 2.0 | 6.0 | 0.00 | 0.00 | 0.00 | 81 | 1016.1 |
| 20260508114503 | 63 | 338 | 2.0 | 6.0 | 0.00 | 0.00 | 0.00 | 81 | 1016.1 |
| 20260508114003 | 63 | 338 | 1.0 | 4.0 | 0.00 | 0.00 | 0.00 | 81 | 1016.0 |
| 20260508113503 | 63 | 338 | 1.0 | 4.0 | 0.00 | 0.00 | 0.00 | 81 | 1016.1 |
| 20260508113004 | 63 | 338 | 1.0 | 4.0 | 0.00 | 0.00 | 0.00 | 80 | 1016.1 |
| 20260508112503 | 63 | 338 | 0.0 | 4.0 | 0.00 | 0.00 | 0.00 | 80 | 1016.1 |
| 20260508112003 | 63 | 338 | 1.0 | 4.0 | 0.00 | 0.00 | 0.00 | 80 | 1016.2 |
| 20260508111503 | 63 | 338 | 2.0 | 4.0 | 0.00 | 0.00 | 0.00 | 80 | 1016.1 |
| 20260508111003 | 63 | 338 | 2.0 | 5.0 | 0.00 | 0.00 | 0.00 | 80 | 1016.0 |
| 20260508110524 | 63 | 337 | 4.0 | 7.0 | 0.00 | 0.00 | 0.00 | 80 | 1016.0 |
| 20260508110003 | 63 | 339 | 5.0 | 8.0 | 0.00 | 0.00 | 0.00 | 80 | 1016.0 |
| 20260508105503 | 63 | 342 | 4.0 | 8.0 | 0.00 | 0.00 | 0.00 | 80 | 1015.9 |
| 20260508105004 | 63 | 342 | 4.0 | 8.0 | 0.00 | 0.00 | 0.00 | 80 | 1015.8 |
| 20260508104504 | 63 | 337 | 4.0 | 10.0 | 0.00 | 0.00 | 0.00 | 80 | 1015.9 |
| 20260508104003 | 63 | 334 | 2.0 | 10.0 | 0.00 | 0.00 | 0.00 | 80 | 1015.9 |
| 20260508103503 | 63 | 331 | 2.0 | 7.0 | 0.00 | 0.00 | 0.00 | 80 | 1015.9 |
| 20260508103003 | 63 | 329 | 4.0 | 7.0 | 0.00 | 0.00 | 0.00 | 80 | 1016.0 |
| 20260508102503 | 63 | 329 | 5.0 | 10.0 | 0.00 | 0.00 | 0.00 | 80 | 1015.9 |
| 20260508102003 | 63 | 342 | 5.0 | 10.0 | 0.00 | 0.00 | 0.00 | 80 | 1015.8 |
| 20260508101503 | 63 | 358 | 4.0 | 8.0 | 0.00 | 0.00 | 0.00 | 81 | 1015.6 |
| 20260508101024 | 63 | 10 | 2.0 | 7.0 | 0.00 | 0.00 | 0.00 | 81 | 1015.6 |
| 20260508100503 | 63 | 11 | 2.0 | 5.0 | 0.00 | 0.00 | 0.00 | 81 | 1015.5 |
| 20260508100003 | 63 | 11 | 2.0 | 5.0 | 0.00 | 0.00 | 0.00 | 81 | 1015.7 |
| 20260508095503 | 63 | 2 | 2.0 | 8.0 | 0.00 | 0.00 | 0.00 | 81 | 1016.0 |